| time (UTC) | temp C | wind direction | speed KPH | gust KPH | rain 1hr cm | rain 24hr cm | rain mn cm | humidity % | barometer mb |
| 20260906090435 | 21 | 309 | 0.0 | 1.6 | 0.00 | 0.03 | 0.00 | 92 | 1012.5 |
| 20260906090027 | 22 | 309 | 0.0 | 0.0 | 0.00 | 0.03 | 0.00 | 92 | 1012.4 |
| 20260906090005 | 21 | 309 | 0.0 | 1.6 | 0.00 | 0.03 | 0.00 | 92 | 1012.5 |
| 20260906084931 | 22 | 309 | 0.0 | 0.0 | 0.00 | 0.03 | 0.00 | 92 | 1012.4 |
| 20260906084430 | 22 | 309 | 0.0 | 0.0 | 0.00 | 0.03 | 0.00 | 92 | 1012.4 |
| 20260906083929 | 22 | 309 | 0.0 | 0.0 | 0.00 | 0.03 | 0.00 | 92 | 1012.5 |
| 20260906083431 | 22 | 309 | 0.0 | 0.0 | 0.00 | 0.03 | 0.00 | 92 | 1012.5 |
| 20260906082932 | 22 | 309 | 0.0 | 1.6 | 0.00 | 0.03 | 0.00 | 92 | 1012.4 |
| 20260906082426 | 22 | 309 | 0.0 | 1.6 | 0.00 | 0.03 | 0.00 | 92 | 1012.4 |
| 20260906081923 | 22 | 309 | 0.0 | 1.6 | 0.00 | 0.03 | 0.00 | 92 | 1012.4 |
| 20260906081420 | 22 | 309 | 0.0 | 1.6 | 0.00 | 0.03 | 0.00 | 92 | 1012.2 |
| 20260906080917 | 22 | 309 | 0.0 | 0.0 | 0.00 | 0.03 | 0.00 | 92 | 1012.1 |
| 20260906080710 | 22 | 309 | 0.0 | 1.6 | 0.00 | 0.03 | 0.00 | 92 | 1012.1 |
| 20260906075914 | 22 | 309 | 0.0 | 1.6 | 0.00 | 0.03 | 0.00 | 91 | 1011.9 |
| 20260906075415 | 22 | 309 | 0.0 | 0.0 | 0.00 | 0.03 | 0.00 | 91 | 1011.9 |
| 20260906075211 | 22 | 309 | 0.0 | 0.0 | 0.00 | 0.03 | 0.00 | 91 | 1011.8 |
| 20260906074706 | 22 | 309 | 0.0 | 0.0 | 0.00 | 0.03 | 0.00 | 91 | 1011.8 |
| 20260906073909 | 22 | 309 | 0.0 | 0.0 | 0.00 | 0.03 | 0.00 | 91 | 1011.7 |
| 20260906073410 | 22 | 309 | 0.0 | 0.0 | 0.00 | 0.03 | 0.00 | 91 | 1011.7 |
| 20260906072908 | 22 | 309 | 0.0 | 0.0 | 0.00 | 0.03 | 0.00 | 91 | 1011.7 |
| 20260906072406 | 22 | 309 | 0.0 | 0.0 | 0.00 | 0.03 | 0.00 | 91 | 1011.7 |
| 20260906071904 | 22 | 309 | 0.0 | 0.0 | 0.00 | 0.03 | 0.00 | 91 | 1011.9 |
| 20260906071404 | 22 | 309 | 0.0 | 1.6 | 0.00 | 0.03 | 0.00 | 91 | 1011.9 |
| 20260906070904 | 22 | 309 | 0.0 | 3.2 | 0.00 | 0.03 | 0.00 | 91 | 1011.9 |
| 20260906070708 | 22 | 292 | 0.0 | 3.2 | 0.00 | 0.03 | 0.00 | 91 | 1012.1 |
| 20260906065905 | 22 | 248 | 0.0 | 1.6 | 0.00 | 0.03 | 0.00 | 91 | 1012.2 |
| 20260906065401 | 22 | 273 | 0.0 | 1.6 | 0.00 | 0.03 | 0.00 | 90 | 1012.4 |
| 20260906064901 | 22 | 273 | 0.0 | 3.2 | 0.00 | 0.03 | 0.00 | 90 | 1012.2 |
| 20260906064407 | 22 | 273 | 0.0 | 3.2 | 0.00 | 0.03 | 0.00 | 90 | 1012.2 |
| 20260906063903 | 22 | 315 | 0.0 | 1.6 | 0.00 | 0.03 | 0.00 | 90 | 1012.1 |
| 20260906063357 | 22 | 314 | 0.0 | 1.6 | 0.00 | 0.03 | 0.00 | 89 | 1012.2 |
| 20260906062852 | 22 | 309 | 0.0 | 1.6 | 0.00 | 0.03 | 0.00 | 89 | 1012.3 |
| 20260906062346 | 22 | 309 | 0.0 | 0.0 | 0.00 | 0.03 | 0.00 | 89 | 1012.5 |
| 20260906061845 | 22 | 309 | 0.0 | 0.0 | 0.00 | 0.03 | 0.00 | 89 | 1012.6 |
| 20260906061342 | 22 | 309 | 0.0 | 0.0 | 0.00 | 0.03 | 0.00 | 89 | 1012.6 |
| 20260906060843 | 23 | 309 | 0.0 | 0.0 | 0.00 | 0.03 | 0.00 | 89 | 1012.7 |
| 20260906060339 | 23 | 309 | 0.0 | 0.0 | 0.00 | 0.03 | 0.00 | 89 | 1012.6 |
| 20260906055841 | 23 | 309 | 0.0 | 1.6 | 0.00 | 0.03 | 0.00 | 89 | 1012.6 |
| 20260906055341 | 23 | 309 | 0.0 | 1.6 | 0.00 | 0.03 | 0.00 | 89 | 1012.7 |
| 20260906054839 | 23 | 309 | 0.0 | 1.6 | 0.00 | 0.03 | 0.00 | 89 | 1012.7 |
| 20260906054631 | 23 | 309 | 0.0 | 1.6 | 0.00 | 0.03 | 0.00 | 89 | 1012.8 |
| 20260906054127 | 23 | 309 | 0.0 | 1.6 | 0.00 | 0.03 | 0.00 | 89 | 1012.8 |
| 20260906053727 | 23 | 309 | 0.0 | 1.6 | 0.00 | 0.03 | 0.00 | 88 | 1013.0 |
| 20260906053723 | 23 | 309 | 0.0 | 1.6 | 0.00 | 0.03 | 0.00 | 88 | 1012.9 |
| 20260906052341 | 23 | 309 | 0.0 | 1.6 | 0.00 | 0.03 | 0.00 | 88 | 1013.0 |
| 20260906051838 | 23 | 271 | 0.0 | 1.6 | 0.00 | 0.03 | 0.00 | 88 | 1013.0 |
| 20260906051339 | 23 | 265 | 0.0 | 1.6 | 0.00 | 0.03 | 0.00 | 88 | 1013.0 |
| 20260906050837 | 23 | 262 | 0.0 | 3.2 | 0.00 | 0.03 | 0.00 | 88 | 1013.1 |
| 20260906050622 | 23 | 262 | 0.0 | 3.2 | 0.00 | 0.03 | 0.00 | 87 | 1013.1 |
| 20260906045837 | 23 | 255 | 0.0 | 3.2 | 0.00 | 0.03 | 0.00 | 87 | 1013.2 |
| 20260906045337 | 23 | 296 | 0.0 | 3.2 | 0.00 | 0.03 | 0.00 | 87 | 1013.3 |
| 20260906045125 | 23 | 355 | 0.0 | 1.6 | 0.00 | 0.03 | 0.00 | 87 | 1013.3 |
| 20260906044337 | 23 | 355 | 0.0 | 0.0 | 0.00 | 0.03 | 0.00 | 87 | 1013.3 |
| 20260906043832 | 23 | 355 | 0.0 | 1.6 | 0.00 | 0.03 | 0.00 | 87 | 1013.4 |
| 20260906043332 | 23 | 355 | 0.0 | 1.6 | 0.00 | 0.03 | 0.00 | 87 | 1013.5 |
| 20260906042829 | 23 | 355 | 0.0 | 1.6 | 0.00 | 0.03 | 0.00 | 86 | 1013.5 |
| 20260906042329 | 23 | 355 | 0.0 | 1.6 | 0.00 | 0.03 | 0.00 | 86 | 1013.3 |
| 20260906041831 | 23 | 355 | 0.0 | 1.6 | 0.00 | 0.03 | 0.00 | 86 | 1013.4 |
| 20260906041330 | 23 | 355 | 0.0 | 1.6 | 0.00 | 0.03 | 0.00 | 86 | 1013.5 |
| 20260906040830 | 23 | 355 | 0.0 | 1.6 | 0.00 | 0.03 | 0.00 | 85 | 1013.6 |
| 20260906040329 | 23 | 355 | 0.0 | 1.6 | 0.00 | 0.03 | 0.00 | 85 | 1013.6 |
| 20260906035831 | 23 | 355 | 0.0 | 1.6 | 0.00 | 0.03 | 0.03 | 85 | 1013.5 |
| 20260906035331 | 23 | 355 | 0.0 | 1.6 | 0.00 | 0.03 | 0.03 | 85 | 1013.5 |
| 20260906034825 | 23 | 355 | 0.0 | 1.6 | 0.00 | 0.03 | 0.03 | 85 | 1013.5 |
| 20260906034318 | 23 | 355 | 0.0 | 1.6 | 0.00 | 0.03 | 0.03 | 84 | 1013.6 |
| 20260906033813 | 23 | 355 | 0.0 | 1.6 | 0.00 | 0.03 | 0.03 | 84 | 1013.7 |
| 20260906033559 | 23 | 355 | 0.0 | 1.6 | 0.00 | 0.03 | 0.03 | 84 | 1013.7 |
| 20260906032816 | 23 | 355 | 0.0 | 1.6 | 0.00 | 0.03 | 0.03 | 84 | 1013.6 |
| 20260906032313 | 23 | 355 | 0.0 | 1.6 | 0.00 | 0.03 | 0.03 | 84 | 1013.5 |
| 20260906031813 | 23 | 355 | 0.0 | 1.6 | 0.00 | 0.03 | 0.03 | 84 | 1013.5 |
| 20260906031313 | 23 | 355 | 0.0 | 1.6 | 0.00 | 0.03 | 0.03 | 84 | 1013.6 |
| 20260906030810 | 23 | 355 | 0.0 | 0.0 | 0.00 | 0.03 | 0.03 | 84 | 1013.7 |
| 20260906030309 | 23 | 355 | 0.0 | 1.6 | 0.00 | 0.03 | 0.03 | 84 | 1013.6 |
| 20260906025810 | 23 | 355 | 0.0 | 1.6 | 0.00 | 0.03 | 0.03 | 84 | 1013.6 |
| 20260906025307 | 23 | 355 | 0.0 | 1.6 | 0.00 | 0.03 | 0.03 | 83 | 1013.5 |
| 20260906024808 | 23 | 355 | 0.0 | 1.6 | 0.00 | 0.03 | 0.03 | 83 | 1013.6 |
| 20260906024358 | 23 | 355 | 0.0 | 1.6 | 0.00 | 0.03 | 0.03 | 83 | 1013.4 |
| 20260906024344 | 23 | 355 | 0.0 | 0.0 | 0.00 | 0.03 | 0.03 | 83 | 1013.6 |
| 20260906023312 | 23 | 355 | 0.0 | 1.6 | 0.00 | 0.03 | 0.03 | 83 | 1013.4 |
| 20260906022806 | 23 | 355 | 0.0 | 1.6 | 0.00 | 0.03 | 0.03 | 83 | 1013.5 |
| 20260906022348 | 23 | 355 | 1.6 | 3.2 | 0.00 | 0.03 | 0.03 | 83 | 1013.4 |
| 20260906022337 | 23 | 355 | 0.0 | 3.2 | 0.00 | 0.03 | 0.03 | 83 | 1013.5 |
| 20260906021550 | 24 | 355 | 0.0 | 3.2 | 0.00 | 0.03 | 0.03 | 81 | 1013.3 |
| 20260906021057 | 24 | 355 | 0.0 | 1.6 | 0.00 | 0.03 | 0.03 | 80 | 1013.3 |
| 20260906020258 | 24 | 355 | 0.0 | 1.6 | 0.00 | 0.03 | 0.03 | 80 | 1013.2 |
| 20260906015755 | 24 | 355 | 0.0 | 3.2 | 0.00 | 0.03 | 0.03 | 80 | 1013.1 |
| 20260906015255 | 24 | 355 | 0.0 | 3.2 | 0.00 | 0.03 | 0.03 | 81 | 1013.1 |
| 20260906014754 | 25 | 355 | 0.0 | 1.6 | 0.00 | 0.03 | 0.03 | 81 | 1013.1 |
| 20260906014546 | 25 | 355 | 0.0 | 1.6 | 0.00 | 0.03 | 0.03 | 81 | 1013.3 |
| 20260906014043 | 25 | 355 | 0.0 | 0.0 | 0.00 | 0.03 | 0.03 | 81 | 1013.1 |
| 20260906013251 | 25 | 355 | 0.0 | 1.6 | 0.00 | 0.03 | 0.03 | 81 | 1013.1 |
| 20260906013038 | 25 | 355 | 0.0 | 1.6 | 0.00 | 0.03 | 0.03 | 80 | 1013.0 |
| 20260906012249 | 25 | 355 | 0.0 | 1.6 | 0.00 | 0.03 | 0.03 | 80 | 1012.8 |
| 20260906011750 | 25 | 355 | 0.0 | 1.6 | 0.00 | 0.03 | 0.03 | 79 | 1012.8 |
| 20260906011251 | 25 | 355 | 0.0 | 0.0 | 0.00 | 0.03 | 0.03 | 78 | 1012.7 |
| 20260906010751 | 25 | 355 | 0.0 | 0.0 | 0.00 | 0.03 | 0.03 | 78 | 1012.7 |
| 20260906010251 | 25 | 355 | 0.0 | 0.0 | 0.00 | 0.03 | 0.03 | 78 | 1012.7 |
| 20260906005748 | 26 | 355 | 0.0 | 0.0 | 0.00 | 0.03 | 0.03 | 77 | 1012.6 |
| 20260906005249 | 26 | 355 | 0.0 | 1.6 | 0.00 | 0.03 | 0.03 | 76 | 1012.7 |
| 20260906004747 | 26 | 355 | 0.0 | 1.6 | 0.00 | 0.03 | 0.03 | 76 | 1012.7 |
| 20260906004546 | 26 | 355 | 0.0 | 1.6 | 0.00 | 0.03 | 0.03 | 75 | 1012.7 |
| 20260906004043 | 26 | 355 | 0.0 | 1.6 | 0.00 | 0.03 | 0.03 | 75 | 1012.6 |
| 20260906003246 | 26 | 355 | 0.0 | 1.6 | 0.00 | 0.03 | 0.03 | 74 | 1012.6 |
| 20260906002747 | 26 | 355 | 0.0 | 1.6 | 0.00 | 0.03 | 0.03 | 74 | 1012.7 |
| 20260906002339 | 27 | 355 | 0.0 | 1.6 | 0.00 | 0.03 | 0.03 | 72 | 1012.6 |
| 20260906002325 | 27 | 355 | 0.0 | 1.6 | 0.00 | 0.03 | 0.03 | 73 | 1012.7 |
| 20260906001341 | 27 | 355 | 0.0 | 0.0 | 0.00 | 0.03 | 0.03 | 71 | 1012.5 |
| 20260906001327 | 27 | 355 | 0.0 | 0.0 | 0.00 | 0.03 | 0.03 | 72 | 1012.6 |
| 20260906000245 | 27 | 355 | 0.0 | 0.0 | 0.00 | 0.03 | 0.03 | 70 | 1012.5 |
| 20260905235747 | 27 | 355 | 0.0 | 1.6 | 0.00 | 0.03 | 0.03 | 70 | 1012.4 |
| 20260905235246 | 27 | 355 | 0.0 | 1.6 | 0.00 | 0.03 | 0.03 | 69 | 1012.4 |
| 20260905234745 | 28 | 355 | 0.0 | 1.6 | 0.00 | 0.03 | 0.03 | 69 | 1012.2 |
| 20260905234245 | 28 | 355 | 0.0 | 0.0 | 0.00 | 0.03 | 0.03 | 68 | 1012.2 |
| 20260905234046 | 28 | 355 | 0.0 | 3.2 | 0.00 | 0.03 | 0.03 | 68 | 1012.2 |
| 20260905233245 | 28 | 355 | 0.0 | 3.2 | 0.00 | 0.03 | 0.03 | 68 | 1012.0 |
| 20260905232746 | 28 | 273 | 0.0 | 3.2 | 0.00 | 0.03 | 0.03 | 67 | 1012.1 |
| 20260905232246 | 28 | 5 | 0.0 | 3.2 | 0.00 | 0.03 | 0.03 | 66 | 1012.1 |
| 20260905231747 | 28 | 5 | 0.0 | 3.2 | 0.00 | 0.03 | 0.03 | 65 | 1012.1 |
| 20260905231245 | 28 | 5 | 0.0 | 3.2 | 0.00 | 0.03 | 0.03 | 65 | 1012.0 |
| 20260905230745 | 28 | 5 | 1.6 | 3.2 | 0.00 | 0.03 | 0.03 | 64 | 1012.0 |
| 20260905230246 | 28 | 215 | 1.6 | 3.2 | 0.00 | 0.03 | 0.03 | 64 | 1012.0 |
| 20260905225747 | 29 | 311 | 1.6 | 8.0 | 0.00 | 0.03 | 0.03 | 64 | 1012.0 |
| 20260905225245 | 29 | 209 | 1.6 | 8.0 | 0.00 | 0.03 | 0.03 | 64 | 1012.0 |
| 20260905224746 | 29 | 296 | 1.6 | 6.4 | 0.00 | 0.03 | 0.03 | 63 | 1012.1 |
| 20260905224245 | 29 | 232 | 1.6 | 6.4 | 0.00 | 0.03 | 0.03 | 64 | 1012.0 |
| 20260905223743 | 28 | 340 | 1.6 | 4.8 | 0.00 | 0.03 | 0.03 | 65 | 1011.9 |
| 20260905223242 | 28 | 14 | 1.6 | 4.8 | 0.00 | 0.03 | 0.03 | 65 | 1011.9 |
| 20260905222742 | 28 | 201 | 1.6 | 11.3 | 0.00 | 0.03 | 0.03 | 65 | 1011.8 |
| 20260905222547 | 28 | 211 | 1.6 | 11.3 | 0.00 | 0.03 | 0.03 | 66 | 1011.7 |
| 20260905222034 | 28 | 246 | 1.6 | 12.9 | 0.00 | 0.03 | 0.03 | 67 | 1011.7 |
| 20260905221239 | 27 | 224 | 1.6 | 12.9 | 0.00 | 0.03 | 0.03 | 67 | 1011.9 |
| 20260905220736 | 27 | 271 | 1.6 | 9.7 | 0.00 | 0.03 | 0.03 | 69 | 1011.9 |
| 20260905220236 | 27 | 271 | 1.6 | 4.8 | 0.00 | 0.03 | 0.03 | 70 | 1012.0 |
| 20260905215733 | 27 | 189 | 1.6 | 4.8 | 0.00 | 0.03 | 0.03 | 70 | 1012.0 |
| 20260905215232 | 27 | 317 | 1.6 | 11.3 | 0.00 | 0.03 | 0.03 | 71 | 1012.1 |
| 20260905214731 | 27 | 338 | 1.6 | 11.3 | 0.00 | 0.03 | 0.03 | 72 | 1012.1 |
| 20260905214230 | 27 | 241 | 1.6 | 6.4 | 0.00 | 0.03 | 0.03 | 74 | 1012.3 |
| 20260905213731 | 26 | 275 | 1.6 | 9.7 | 0.00 | 0.03 | 0.03 | 75 | 1012.4 |
| 20260905213229 | 26 | 244 | 1.6 | 9.7 | 0.00 | 0.03 | 0.03 | 76 | 1012.6 |
| 20260905212728 | 26 | 281 | 1.6 | 6.4 | 0.00 | 0.03 | 0.03 | 76 | 1012.7 |
| 20260905212529 | 26 | 183 | 1.6 | 6.4 | 0.00 | 0.03 | 0.03 | 77 | 1012.9 |
| 20260905211727 | 26 | 355 | 1.6 | 6.4 | 0.00 | 0.03 | 0.03 | 78 | 1012.8 |
| 20260905211227 | 26 | 288 | 1.6 | 6.4 | 0.00 | 0.03 | 0.03 | 79 | 1012.9 |
| 20260905210725 | 26 | 255 | 1.6 | 4.8 | 0.00 | 0.03 | 0.03 | 79 | 1013.0 |
| 20260905210227 | 26 | 340 | 1.6 | 6.4 | 0.00 | 0.03 | 0.03 | 80 | 1012.9 |
| 20260905205723 | 25 | 252 | 1.6 | 6.4 | 0.00 | 0.03 | 0.03 | 80 | 1012.9 |
| 20260905205223 | 25 | 0 | 0.0 | 3.2 | 0.00 | 0.03 | 0.03 | 80 | 1012.7 |
| 20260905204716 | 25 | 327 | 1.6 | 4.8 | 0.00 | 0.03 | 0.03 | 79 | 1012.9 |
| 20260905204210 | 25 | 279 | 1.6 | 4.8 | 0.00 | 0.03 | 0.03 | 78 | 1012.8 |
| 20260905203706 | 25 | 253 | 1.6 | 4.8 | 0.00 | 0.03 | 0.03 | 77 | 1012.7 |
| 20260905203205 | 25 | 327 | 3.2 | 11.3 | 0.00 | 0.03 | 0.03 | 77 | 1012.6 |
| 20260905202705 | 25 | 259 | 1.6 | 11.3 | 0.00 | 0.03 | 0.03 | 77 | 1012.8 |
| 20260905202206 | 25 | 230 | 1.6 | 3.2 | 0.00 | 0.03 | 0.03 | 77 | 1012.7 |
| 20260905201705 | 25 | 49 | 1.6 | 6.4 | 0.00 | 0.03 | 0.03 | 78 | 1012.8 |
| 20260905201205 | 25 | 279 | 1.6 | 6.4 | 0.00 | 0.03 | 0.03 | 78 | 1012.9 |
| 20260905201000 | 25 | 269 | 0.0 | 6.4 | 0.00 | 0.03 | 0.03 | 78 | 1012.9 |
| 20260905200205 | 25 | 323 | 0.0 | 3.2 | 0.00 | 0.03 | 0.03 | 78 | 1013.0 |
| 20260905195705 | 25 | 329 | 0.0 | 3.2 | 0.00 | 0.03 | 0.03 | 78 | 1013.0 |
| 20260905195503 | 25 | 220 | 0.0 | 3.2 | 0.00 | 0.03 | 0.03 | 79 | 1012.9 |
| 20260905194701 | 25 | 5 | 0.0 | 3.2 | 0.03 | 0.03 | 0.03 | 80 | 1012.9 |
| 20260905194203 | 25 | 227 | 1.6 | 3.2 | 0.03 | 0.03 | 0.03 | 80 | 1012.9 |
| 20260905193700 | 25 | 319 | 1.6 | 3.2 | 0.03 | 0.03 | 0.03 | 79 | 1013.0 |
| 20260905193201 | 25 | 32 | 1.6 | 3.2 | 0.03 | 0.03 | 0.03 | 77 | 1012.9 |
| 20260905192702 | 26 | 13 | 0.0 | 3.2 | 0.03 | 0.03 | 0.03 | 76 | 1013.1 |
| 20260905192202 | 26 | 223 | 0.0 | 3.2 | 0.03 | 0.03 | 0.03 | 76 | 1013.0 |
| 20260905191703 | 26 | 223 | 1.6 | 6.4 | 0.03 | 0.03 | 0.03 | 75 | 1012.6 |
| 20260905191202 | 26 | 74 | 1.6 | 6.4 | 0.03 | 0.03 | 0.03 | 73 | 1012.6 |
| 20260905190658 | 27 | 92 | 3.2 | 9.7 | 0.03 | 0.03 | 0.03 | 73 | 1012.4 |
| 20260905190448 | 27 | 56 | 4.8 | 12.9 | 0.03 | 0.03 | 0.03 | 70 | 1012.7 |
| 20260905185645 | 28 | 65 | 4.8 | 12.9 | 0.03 | 0.03 | 0.03 | 65 | 1012.8 |
| 20260905185140 | 30 | 65 | 4.8 | 24.1 | 0.00 | 0.00 | 0.00 | 57 | 1012.5 |
| 20260905184636 | 31 | 117 | 6.4 | 24.1 | 0.00 | 0.00 | 0.00 | 51 | 1013.3 |
| 20260905184135 | 33 | 31 | 8.0 | 27.4 | 0.00 | 0.00 | 0.00 | 47 | 1013.5 |
| 20260905183635 | 35 | 239 | 8.0 | 27.4 | 0.00 | 0.00 | 0.00 | 43 | 1013.7 |
| 20260905183245 | 36 | 32 | 3.2 | 12.9 | 0.00 | 0.00 | 0.00 | 46 | 1012.6 |
| 20260905183221 | 36 | 280 | 4.8 | 16.1 | 0.00 | 0.00 | 0.00 | 46 | 1013.3 |
| 20260905182135 | 36 | 88 | 3.2 | 12.9 | 0.00 | 0.00 | 0.00 | 47 | 1012.4 |
| 20260905181636 | 36 | 325 | 3.2 | 14.5 | 0.00 | 0.00 | 0.00 | 47 | 1012.4 |
| 20260905181435 | 36 | 256 | 3.2 | 14.5 | 0.00 | 0.00 | 0.00 | 47 | 1012.6 |
| 20260905180634 | 36 | 168 | 3.2 | 8.0 | 0.00 | 0.00 | 0.00 | 47 | 1012.7 |
| 20260905180134 | 36 | 59 | 3.2 | 14.5 | 0.00 | 0.00 | 0.00 | 47 | 1012.8 |
| 20260905175633 | 36 | 97 | 3.2 | 14.5 | 0.00 | 0.00 | 0.00 | 46 | 1013.1 |
| 20260905175427 | 36 | 355 | 1.6 | 12.9 | 0.00 | 0.00 | 0.00 | 48 | 1013.1 |
| 20260905174631 | 36 | 54 | 3.2 | 16.1 | 0.00 | 0.00 | 0.00 | 47 | 1013.3 |
| 20260905174130 | 36 | 157 | 3.2 | 16.1 | 0.00 | 0.00 | 0.00 | 48 | 1013.3 |
| 20260905173633 | 36 | 350 | 3.2 | 8.0 | 0.00 | 0.00 | 0.00 | 48 | 1013.5 |
| 20260905173133 | 36 | 97 | 3.2 | 11.3 | 0.00 | 0.00 | 0.00 | 48 | 1013.4 |
| 20260905172632 | 36 | 67 | 3.2 | 11.3 | 0.00 | 0.00 | 0.00 | 47 | 1013.6 |
| 20260905172133 | 36 | 325 | 3.2 | 16.1 | 0.00 | 0.00 | 0.00 | 47 | 1013.8 |
| 20260905171631 | 36 | 318 | 4.8 | 16.1 | 0.00 | 0.00 | 0.00 | 47 | 1013.8 |
| 20260905171128 | 36 | 233 | 3.2 | 12.9 | 0.00 | 0.00 | 0.00 | 47 | 1014.0 |
| 20260905170629 | 35 | 247 | 3.2 | 11.3 | 0.00 | 0.00 | 0.00 | 46 | 1013.9 |
| 20260905170129 | 35 | 217 | 3.2 | 8.0 | 0.00 | 0.00 | 0.00 | 48 | 1014.0 |
| 20260905165630 | 35 | 90 | 3.2 | 9.7 | 0.00 | 0.00 | 0.00 | 49 | 1014.0 |
| 20260905165128 | 35 | 317 | 3.2 | 12.9 | 0.00 | 0.00 | 0.00 | 49 | 1014.0 |
| 20260905164629 | 35 | 201 | 3.2 | 12.9 | 0.00 | 0.00 | 0.00 | 49 | 1014.3 |
| 20260905164129 | 34 | 13 | 3.2 | 11.3 | 0.00 | 0.00 | 0.00 | 51 | 1014.4 |
| 20260905163629 | 34 | 22 | 3.2 | 11.3 | 0.00 | 0.00 | 0.00 | 51 | 1014.5 |
| 20260905163130 | 34 | 266 | 1.6 | 11.3 | 0.00 | 0.00 | 0.00 | 51 | 1014.6 |
| 20260905162634 | 33 | 223 | 1.6 | 8.0 | 0.00 | 0.00 | 0.00 | 52 | 1014.7 |
| 20260905162423 | 33 | 210 | 1.6 | 8.0 | 0.00 | 0.00 | 0.00 | 54 | 1014.7 |
| 20260905161921 | 33 | 15 | 1.6 | 8.0 | 0.00 | 0.00 | 0.00 | 56 | 1014.7 |
| 20260905161220 | 32 | 240 | 1.6 | 6.4 | 0.00 | 0.00 | 0.00 | 59 | 1014.7 |
| 20260905161204 | 33 | 346 | 1.6 | 8.0 | 0.00 | 0.00 | 0.00 | 58 | 1014.8 |
| 20260905160131 | 32 | 94 | 1.6 | 6.4 | 0.00 | 0.00 | 0.00 | 61 | 1014.7 |
| 20260905155628 | 32 | 198 | 3.2 | 6.4 | 0.00 | 0.00 | 0.00 | 60 | 1014.7 |
| 20260905155127 | 32 | 201 | 1.6 | 6.4 | 0.00 | 0.00 | 0.00 | 62 | 1014.8 |
| 20260905154628 | 32 | 51 | 1.6 | 6.4 | 0.00 | 0.00 | 0.00 | 65 | 1014.8 |
| 20260905154127 | 31 | 346 | 1.6 | 6.4 | 0.00 | 0.00 | 0.00 | 65 | 1014.9 |
| 20260905153627 | 31 | 67 | 1.6 | 4.8 | 0.00 | 0.00 | 0.00 | 69 | 1014.8 |
| 20260905153420 | 31 | 224 | 1.6 | 4.8 | 0.00 | 0.00 | 0.00 | 70 | 1014.8 |
| 20260905152628 | 31 | 326 | 1.6 | 6.4 | 0.00 | 0.00 | 0.00 | 71 | 1014.7 |
| 20260905152127 | 30 | 0 | 1.6 | 6.4 | 0.00 | 0.00 | 0.00 | 71 | 1014.8 |
| 20260905151626 | 30 | 329 | 1.6 | 6.4 | 0.00 | 0.00 | 0.00 | 73 | 1015.0 |
| 20260905151419 | 30 | 327 | 1.6 | 4.8 | 0.00 | 0.00 | 0.00 | 73 | 1014.9 |
| 20260905150623 | 30 | 245 | 1.6 | 4.8 | 0.00 | 0.00 | 0.00 | 73 | 1014.9 |
| 20260905150122 | 30 | 297 | 1.6 | 4.8 | 0.00 | 0.00 | 0.00 | 74 | 1014.9 |
| 20260905145623 | 29 | 284 | 1.6 | 4.8 | 0.00 | 0.00 | 0.00 | 75 | 1014.9 |
| 20260905145413 | 29 | 342 | 1.6 | 6.4 | 0.00 | 0.00 | 0.00 | 76 | 1014.9 |
| 20260905144622 | 29 | 0 | 1.6 | 6.4 | 0.00 | 0.00 | 0.00 | 76 | 1014.8 |
| 20260905144123 | 28 | 56 | 1.6 | 6.4 | 0.00 | 0.00 | 0.00 | 77 | 1014.8 |
| 20260905143624 | 28 | 186 | 1.6 | 6.4 | 0.00 | 0.00 | 0.00 | 78 | 1014.8 |
| 20260905143122 | 28 | 221 | 1.6 | 6.4 | 0.00 | 0.00 | 0.00 | 78 | 1014.9 |
| 20260905142624 | 28 | 22 | 1.6 | 3.2 | 0.00 | 0.00 | 0.00 | 79 | 1014.9 |
| 20260905142120 | 28 | 175 | 1.6 | 3.2 | 0.00 | 0.00 | 0.00 | 79 | 1014.9 |
| 20260905141619 | 27 | 233 | 1.6 | 6.4 | 0.00 | 0.00 | 0.00 | 79 | 1015.0 |
| 20260905141119 | 27 | 348 | 1.6 | 6.4 | 0.00 | 0.00 | 0.00 | 81 | 1015.0 |
| 20260905140620 | 27 | 19 | 1.6 | 4.8 | 0.00 | 0.00 | 0.00 | 81 | 1015.1 |
| 20260905140120 | 27 | 217 | 1.6 | 4.8 | 0.00 | 0.00 | 0.00 | 82 | 1015.0 |
| 20260905135619 | 27 | 191 | 1.6 | 6.4 | 0.00 | 0.00 | 0.00 | 83 | 1015.0 |
| 20260905135119 | 26 | 194 | 1.6 | 6.4 | 0.00 | 0.00 | 0.00 | 84 | 1015.0 |
| 20260905134619 | 26 | 34 | 1.6 | 3.2 | 0.00 | 0.00 | 0.00 | 85 | 1015.0 |
| 20260905134119 | 26 | 260 | 1.6 | 4.8 | 0.00 | 0.00 | 0.00 | 85 | 1015.1 |
| 20260905133908 | 26 | 183 | 1.6 | 4.8 | 0.00 | 0.00 | 0.00 | 86 | 1015.0 |
| 20260905133112 | 26 | 26 | 1.6 | 3.2 | 0.00 | 0.00 | 0.00 | 87 | 1015.1 |
| 20260905132907 | 25 | 223 | 1.6 | 3.2 | 0.00 | 0.00 | 0.00 | 88 | 1015.1 |
| 20260905132112 | 25 | 325 | 1.6 | 4.8 | 0.00 | 0.00 | 0.00 | 89 | 1014.9 |
| 20260905131609 | 25 | 350 | 1.6 | 6.4 | 0.00 | 0.00 | 0.00 | 89 | 1015.0 |
| 20260905131108 | 25 | 265 | 0.0 | 6.4 | 0.00 | 0.00 | 0.00 | 90 | 1015.0 |
| 20260905130608 | 25 | 296 | 0.0 | 4.8 | 0.00 | 0.00 | 0.00 | 91 | 1015.0 |
| 20260905130108 | 25 | 250 | 0.0 | 4.8 | 0.00 | 0.00 | 0.00 | 92 | 1015.0 |
| 20260905125901 | 24 | 261 | 0.0 | 3.2 | 0.00 | 0.00 | 0.00 | 93 | 1015.2 |
| 20260905125106 | 24 | 198 | 0.0 | 3.2 | 0.00 | 0.00 | 0.00 | 93 | 1015.3 |
| 20260905124608 | 24 | 302 | 0.0 | 3.2 | 0.00 | 0.00 | 0.00 | 93 | 1015.3 |
| 20260905124403 | 24 | 275 | 0.0 | 1.6 | 0.00 | 0.00 | 0.00 | 93 | 1015.2 |
| 20260905123607 | 24 | 235 | 0.0 | 1.6 | 0.00 | 0.00 | 0.00 | 93 | 1015.2 |
| 20260905123108 | 23 | 179 | 0.0 | 3.2 | 0.00 | 0.00 | 0.00 | 93 | 1015.2 |
| 20260905122608 | 23 | 156 | 0.0 | 3.2 | 0.00 | 0.00 | 0.00 | 93 | 1015.2 |
| 20260905122359 | 23 | 26 | 0.0 | 3.2 | 0.00 | 0.00 | 0.00 | 93 | 1015.2 |
| 20260905121606 | 23 | 26 | 0.0 | 3.2 | 0.00 | 0.00 | 0.00 | 93 | 1015.2 |
| 20260905121103 | 23 | 26 | 0.0 | 1.6 | 0.00 | 0.00 | 0.00 | 92 | 1015.3 |
| 20260905120603 | 23 | 26 | 0.0 | 1.6 | 0.00 | 0.00 | 0.00 | 92 | 1015.3 |
| 20260905120153 | 23 | 26 | 0.0 | 0.0 | 0.00 | 0.00 | 0.00 | 91 | 1015.2 |
| 20260905120136 | 23 | 26 | 0.0 | 1.6 | 0.00 | 0.00 | 0.00 | 92 | 1015.3 |
| 20260905115047 | 23 | 26 | 0.0 | 0.0 | 0.00 | 0.00 | 0.00 | 91 | 1015.1 |
| 20260905114633 | 23 | 26 | 0.0 | 1.6 | 0.00 | 0.00 | 0.00 | 91 | 1014.9 |
| 20260905114616 | 23 | 26 | 0.0 | 1.6 | 0.00 | 0.00 | 0.00 | 91 | 1014.9 |
| 20260905113540 | 23 | 26 | 0.0 | 1.6 | 0.00 | 0.00 | 0.00 | 91 | 1014.9 |
| 20260905113036 | 23 | 26 | 0.0 | 1.6 | 0.00 | 0.00 | 0.00 | 90 | 1014.8 |
| 20260905112535 | 23 | 26 | 0.0 | 1.6 | 0.00 | 0.00 | 0.00 | 90 | 1014.7 |
| 20260905112331 | 23 | 26 | 0.0 | 0.0 | 0.00 | 0.00 | 0.00 | 90 | 1014.7 |
| 20260905111530 | 23 | 26 | 0.0 | 0.0 | 0.00 | 0.00 | 0.00 | 90 | 1014.5 |
| 20260905111032 | 23 | 26 | 0.0 | 1.6 | 0.00 | 0.00 | 0.00 | 90 | 1014.4 |
| 20260905110535 | 23 | 26 | 0.0 | 1.6 | 0.00 | 0.00 | 0.00 | 90 | 1014.3 |
| 20260905110314 | 23 | 26 | 0.0 | 0.0 | 0.00 | 0.00 | 0.00 | 90 | 1014.2 |
| 20260905105529 | 23 | 26 | 0.0 | 0.0 | 0.00 | 0.00 | 0.00 | 89 | 1014.2 |
| 20260905105030 | 23 | 26 | 0.0 | 0.0 | 0.00 | 0.00 | 0.00 | 89 | 1014.2 |
| 20260905104530 | 23 | 26 | 0.0 | 1.6 | 0.00 | 0.00 | 0.00 | 89 | 1013.9 |
| 20260905104030 | 23 | 26 | 0.0 | 1.6 | 0.00 | 0.00 | 0.00 | 89 | 1013.9 |
| 20260905103919 | 23 | 26 | 0.0 | 1.6 | 0.00 | 0.00 | 0.00 | 89 | 1013.8 |
| 20260905103031 | 23 | 26 | 0.0 | 1.6 | 0.00 | 0.00 | 0.00 | 89 | 1013.7 |
| 20260905102925 | 23 | 26 | 0.0 | 1.6 | 0.00 | 0.00 | 0.00 | 89 | 1013.7 |
| 20260905102030 | 23 | 26 | 0.0 | 1.6 | 0.00 | 0.00 | 0.00 | 88 | 1013.7 |
| 20260905101532 | 23 | 26 | 0.0 | 1.6 | 0.00 | 0.00 | 0.00 | 88 | 1013.8 |
| 20260905101037 | 23 | 26 | 0.0 | 1.6 | 0.00 | 0.00 | 0.00 | 88 | 1013.7 |
| 20260905100527 | 23 | 26 | 0.0 | 1.6 | 0.00 | 0.00 | 0.00 | 88 | 1013.7 |
| 20260905100023 | 23 | 26 | 0.0 | 1.6 | 0.00 | 0.00 | 0.00 | 88 | 1013.6 |
| 20260905095520 | 24 | 26 | 0.0 | 0.0 | 0.00 | 0.00 | 0.00 | 88 | 1013.7 |
| 20260905095011 | 24 | 26 | 0.0 | 1.6 | 0.00 | 0.00 | 0.00 | 87 | 1013.7 |
| 20260905094733 | 24 | 26 | 0.0 | 1.6 | 0.00 | 0.00 | 0.00 | 87 | 1013.8 |
| 20260905094009 | 24 | 26 | 0.0 | 0.0 | 0.00 | 0.00 | 0.00 | 87 | 1013.8 |
| 20260905093510 | 24 | 26 | 0.0 | 0.0 | 0.00 | 0.00 | 0.00 | 87 | 1013.8 |
| 20260905093010 | 24 | 26 | 0.0 | 0.0 | 0.00 | 0.00 | 0.00 | 86 | 1013.9 |
| 20260905092505 | 24 | 26 | 0.0 | 0.0 | 0.00 | 0.00 | 0.00 | 86 | 1013.9 |
| 20260905092002 | 24 | 26 | 0.0 | 0.0 | 0.00 | 0.00 | 0.00 | 86 | 1013.9 |
| 20260905091502 | 24 | 26 | 0.0 | 0.0 | 0.00 | 0.00 | 0.00 | 86 | 1013.9 |
| 20260905091329 | 25 | 26 | 0.0 | 0.0 | 0.00 | 0.00 | 0.00 | 86 | 1014.0 |